QPF
0.02 0.02 0.04 0.06 0.07 0.06 0.05 0.04 0.04 0.03 0.02 0.02 0.02 0.02 0.02 0.01 0.01 0.01 0.01 0.01 0.01 0.01 0.01 0.01 0.02 0.02 0.02 0.02 0.02 0.02 0.02 0.02 0.02 0.01 0.01 0.01 0.01 0.01 0.01 0.00 0.00 0.00 0.00
0.01 0.02 0.02 0.05 0.08 0.08 0.07 0.05 0.04 0.04 0.03 0.02 0.02 0.02 0.02 0.02 0.01 0.01 0.01 0.01 0.01 0.01 0.01 0.01 0.01 0.02 0.02 0.02 0.02 0.01 0.01 0.01 0.01 0.01 0.01 0.01 0.01 0.01 0.00 0.00 0.00 0.00 0.00
0.01 0.01 0.02 0.02 0.04 0.06 0.07 0.07 0.07 0.06 0.06 0.04 0.03 0.03 0.03 0.03 0.02 0.02 0.02 0.01 0.01 0.01 0.01 0.01 0.02 0.02 0.02 0.02 0.01 0.01 0.01 0.01 0.01 0.01 0.01 0.01 0.01 0.00 0.00 0.01 0.01 0.01 0.01
0.01 0.01 0.02 0.02 0.03 0.04 0.04 0.05 0.06 0.07 0.07 0.07 0.06 0.04 0.03 0.03 0.03 0.02 0.02 0.02 0.02 0.01 0.01 0.01 0.02 0.02 0.02 0.01 0.01 0.01 0.01 0.01 0.01 0.01 0.01 0.01 0.00 0.01 0.01 0.02 0.01 0.01 0.01
0.01 0.01 0.02 0.03 0.03 0.03 0.04 0.04 0.05 0.05 0.05 0.05 0.05 0.05 0.04 0.03 0.03 0.03 0.03 0.02 0.02 0.02 0.01 0.01 0.01 0.01 0.01 0.01 0.01 0.01 0.01 0.01 0.01 0.01 0.01 0.01 0.00 0.01 0.03 0.02 0.01 0.01 0.02
0.01 0.01 0.02 0.03 0.03 0.03 0.04 0.04 0.04 0.04 0.04 0.04 0.04 0.04 0.04 0.03 0.03 0.02 0.02 0.02 0.01 0.01 0.01 0.01 0.01 0.01 0.01 0.01 0.01 0.01 0.01 0.01 0.01 0.01 0.01 0.01 0.01 0.01 0.01 0.01 0.01 0.03 0.05
0.01 0.02 0.02 0.02 0.03 0.03 0.03 0.04 0.03 0.03 0.03 0.03 0.03 0.04 0.04 0.04 0.03 0.03 0.02 0.02 0.01 0.01 0.01 0.01 0.01 0.01 0.01 0.01 0.01 0.01 0.01 0.01 0.01 0.01 0.01 0.01 0.01 0.01 0.01 0.02 0.02 0.02 0.02
0.03 0.03 0.03 0.03 0.03 0.03 0.03 0.04 0.03 0.03 0.03 0.03 0.02 0.02 0.02 0.03 0.03 0.03 0.02 0.02 0.02 0.02 0.02 0.01 0.01 0.01 0.01 0.01 0.01 0.01 0.01 0.01 0.01 0.01 0.01 0.01 0.01 0.02 0.02 0.03 0.02 0.01 0.01
0.04 0.03 0.03 0.03 0.03 0.03 0.03 0.04 0.03 0.03 0.02 0.02 0.02 0.01 0.02 0.02 0.02 0.02 0.01 0.01 0.01 0.01 0.01 0.01 0.01 0.01 0.01 0.02 0.02 0.01 0.01 0.01 0.01 0.01 0.01 0.01 0.01 0.02 0.03 0.04 0.02 0.01 0.01
0.03 0.02 0.02 0.02 0.02 0.03 0.03 0.03 0.03 0.02 0.02 0.02 0.02 0.01 0.01 0.01 0.01 0.01 0.01 0.01 0.01 0.01 0.01 0.01 0.01 0.01 0.01 0.02 0.02 0.02 0.01 0.01 0.01 0.01 0.01 0.01 0.01 0.02 0.03 0.04 0.03 0.02 0.01
0.01 0.01 0.02 0.02 0.02 0.02 0.02 0.02 0.02 0.02 0.02 0.02 0.01 0.01 0.01 0.01 0.01 0.01 0.01 0.01 0.01 0.01 0.01 0.01 0.01 0.01 0.01 0.01 0.01 0.01 0.01 0.01 0.01 0.01 0.01 0.01 0.01 0.02 0.03 0.03 0.02 0.02 0.02
0.01 0.01 0.01 0.01 0.02 0.02 0.02 0.02 0.03 0.03 0.02 0.02 0.02 0.01 0.01 0.01 0.01 0.01 0.01 0.01 0.01 0.01 0.01 0.01 0.01 0.01 0.01 0.01 0.01 0.01 0.01 0.01 0.01 0.01 0.01 0.01 0.01 0.02 0.02 0.03 0.03 0.03 0.03
0.01 0.01 0.01 0.02 0.02 0.02 0.02 0.03 0.03 0.03 0.03 0.02 0.02 0.01 0.01 0.01 0.01 0.01 0.00 0.00 0.01 0.01 0.01 0.01 0.00 0.01 0.01 0.00 0.00 0.00 0.01 0.01 0.02 0.02 0.01 0.01 0.01 0.02 0.02 0.03 0.03 0.03 0.03
0.01 0.01 0.02 0.02 0.02 0.02 0.02 0.03 0.03 0.03 0.03 0.03 0.02 0.02 0.01 0.01 0.01 0.01 0.01 0.01 0.01 0.01 0.01 0.01 0.01 0.01 0.01 0.01 0.01 0.01 0.01 0.01 0.02 0.02 0.02 0.01 0.01 0.02 0.02 0.02 0.03 0.02 0.02
0.01 0.01 0.02 0.01 0.01 0.01 0.01 0.02 0.02 0.03 0.03 0.03 0.03 0.02 0.02 0.02 0.02 0.02 0.02 0.02 0.02 0.02 0.02 0.02 0.02 0.02 0.01 0.01 0.01 0.01 0.01 0.02 0.02 0.02 0.02 0.02 0.02 0.02 0.02 0.01 0.02 0.02 0.02
0.01 0.01 0.01 0.01 0.01 0.01 0.01 0.01 0.02 0.02 0.02 0.02 0.02 0.03 0.03 0.03 0.03 0.03 0.03 0.03 0.03 0.03 0.03 0.03 0.02 0.02 0.01 0.01 0.01 0.01 0.02 0.02 0.02 0.02 0.02 0.02 0.02 0.02 0.01 0.01 0.01 0.02 0.01
0.01 0.01 0.01 0.01 0.01 0.01 0.01 0.01 0.01 0.01 0.01 0.02 0.02 0.02 0.03 0.03 0.03 0.03 0.03 0.03 0.03 0.03 0.03 0.03 0.02 0.02 0.02 0.02 0.02 0.02 0.01 0.01 0.02 0.02 0.02 0.02 0.02 0.02 0.01 0.01 0.01 0.01 0.01
0.01 0.01 0.01 0.01 0.01 0.01 0.01 0.01 0.01 0.01 0.01 0.01 0.02 0.02 0.02 0.03 0.03 0.03 0.04 0.04 0.05 0.04 0.03 0.02 0.02 0.02 0.02 0.02 0.02 0.02 0.01 0.01 0.01 0.02 0.02 0.02 0.02 0.02 0.02 0.01 0.01 0.01 0.01
0.00 0.00 0.00 0.01 0.01 0.01 0.01 0.01 0.01 0.01 0.01 0.01 0.01 0.01 0.02 0.02 0.02 0.03 0.03 0.04 0.03 0.02 0.02 0.02 0.02 0.02 0.02 0.02 0.02 0.02 0.02 0.02 0.01 0.01 0.01 0.01 0.01 0.02 0.02 0.01 0.01 0.01 0.01
0.01 0.01 0.01 0.01 0.01 0.01 0.01 0.01 0.01 0.01 0.01 0.01 0.01 0.01 0.01 0.02 0.02 0.02 0.02 0.02 0.02 0.02 0.02 0.02 0.02 0.02 0.02 0.02 0.02 0.02 0.02 0.01 0.01 0.01 0.01 0.01 0.01 0.02 0.02 0.01 0.01 0.02 0.02
0.01 0.01 0.01 0.01 0.01 0.01 0.01 0.01 0.01 0.01 0.01 0.01 0.01 0.01 0.02 0.02 0.02 0.02 0.02 0.02 0.01 0.02 0.02 0.02 0.02 0.02 0.02 0.02 0.02 0.02 0.01 0.01 0.01 0.01 0.01 0.01 0.01 0.02 0.01 0.01 0.01 0.02 0.02
0.01 0.01 0.01 0.01 0.01 0.01 0.01 0.01 0.01 0.01 0.01 0.01 0.01 0.01 0.01 0.01 0.02 0.02 0.02 0.02 0.02 0.02 0.02 0.02 0.02 0.02 0.02 0.02 0.02 0.02 0.02 0.01 0.01 0.01 0.01 0.01 0.01 0.01 0.01 0.01 0.01 0.01 0.02
0.01 0.01 0.01 0.01 0.01 0.01 0.01 0.01 0.01 0.01 0.01 0.01 0.01 0.01 0.01 0.02 0.01 0.02 0.02 0.02 0.02 0.02 0.02 0.02 0.02 0.02 0.02 0.02 0.02 0.02 0.02 0.01 0.01 0.02 0.01 0.01 0.01 0.01 0.01 0.01 0.01 0.02 0.02
0.01 0.01 0.01 0.00 0.00 0.00 0.00 0.01 0.01 0.01 0.01 0.01 0.01 0.01 0.02 0.02 0.02 0.02 0.02 0.02 0.02 0.02 0.02 0.02 0.02 0.02 0.02 0.02 0.02 0.02 0.02 0.02 0.02 0.02 0.02 0.01 0.01 0.01 0.01 0.01 0.01 0.01 0.02
0.01 0.01 0.00 0.00 0.00 0.00 0.00 0.01 0.01 0.01 0.01 0.01 0.01 0.01 0.01 0.01 0.02 0.02 0.02 0.02 0.02 0.02 0.02 0.02 0.02 0.02 0.02 0.02 0.02 0.02 0.02 0.02 0.02 0.02 0.02 0.02 0.02 0.01 0.01 0.01 0.01 0.01 0.01
0.01 0.01 0.01 0.00 0.00 0.00 0.01 0.01 0.01 0.01 0.01 0.01 0.01 0.01 0.01 0.01 0.01 0.01 0.01 0.02 0.02 0.02 0.02 0.02 0.02 0.02 0.02 0.02 0.02 0.02 0.02 0.02 0.02 0.02 0.02 0.02 0.02 0.01 0.01 0.01 0.01 0.01 0.01
MSLP
1025.56 1025.43 1025.24 1024.97 1024.58 1024.10 1023.53 1022.92 1022.29 1021.68 1021.10 1020.56 1020.06 1019.60 1019.16 1018.73 1018.33 1017.96 1017.63 1017.36 1017.17 1017.05 1016.99 1016.98 1016.98 1016.97 1016.94 1016.86 1016.73 1016.58 1016.40 1016.24 1016.08 1015.94 1015.81 1015.65 1015.44 1015.16 1014.78 1014.29 1013.70 1013.03 1012.31
1025.64 1025.59 1025.48 1025.29 1025.00 1024.60 1024.12 1023.58 1023.00 1022.42 1021.87 1021.35 1020.88 1020.45 1020.05 1019.69 1019.37 1019.09 1018.85 1018.67 1018.54 1018.46 1018.40 1018.35 1018.29 1018.19 1018.05 1017.85 1017.61 1017.35 1017.10 1016.85 1016.63 1016.44 1016.24 1016.03 1015.76 1015.41 1014.95 1014.38 1013.71 1012.96 1012.16
1025.66 1025.67 1025.63 1025.52 1025.31 1024.99 1024.58 1024.10 1023.56 1023.01 1022.47 1021.96 1021.49 1021.07 1020.70 1020.39 1020.13 1019.93 1019.77 1019.67 1019.60 1019.55 1019.50 1019.42 1019.31 1019.14 1018.91 1018.62 1018.30 1017.97 1017.66 1017.37 1017.11 1016.88 1016.66 1016.40 1016.09 1015.68 1015.16 1014.52 1013.78 1012.95 1012.08
1025.65 1025.71 1025.74 1025.70 1025.56 1025.33 1024.99 1024.57 1024.08 1023.56 1023.04 1022.53 1022.06 1021.65 1021.30 1021.01 1020.79 1020.63 1020.52 1020.46 1020.42 1020.39 1020.33 1020.23 1020.06 1019.83 1019.54 1019.19 1018.82 1018.45 1018.10 1017.79 1017.51 1017.27 1017.03 1016.75 1016.40 1015.95 1015.38 1014.69 1013.89 1013.01 1012.09
1025.62 1025.74 1025.83 1025.86 1025.81 1025.65 1025.40 1025.06 1024.64 1024.17 1023.68 1023.20 1022.74 1022.33 1021.98 1021.70 1021.48 1021.33 1021.24 1021.18 1021.13 1021.07 1020.98 1020.83 1020.61 1020.33 1019.99 1019.60 1019.20 1018.80 1018.45 1018.13 1017.85 1017.60 1017.34 1017.04 1016.67 1016.19 1015.59 1014.86 1014.04 1013.13 1012.18
1025.59 1025.76 1025.92 1026.02 1026.06 1026.00 1025.84 1025.59 1025.27 1024.88 1024.46 1024.02 1023.59 1023.19 1022.84 1022.54 1022.31 1022.13 1021.99 1021.89 1021.79 1021.68 1021.52 1021.31 1021.04 1020.70 1020.32 1019.91 1019.49 1019.10 1018.74 1018.42 1018.14 1017.88 1017.61 1017.28 1016.88 1016.38 1015.76 1015.02 1014.19 1013.29 1012.34
1025.55 1025.79 1026.01 1026.19 1026.31 1026.35 1026.30 1026.17 1025.95 1025.67 1025.33 1024.96 1024.57 1024.20 1023.85 1023.53 1023.25 1023.01 1022.81 1022.63 1022.44 1022.24 1022.01 1021.73 1021.39 1021.02 1020.60 1020.18 1019.76 1019.36 1019.01 1018.69 1018.40 1018.12 1017.81 1017.46 1017.03 1016.50 1015.87 1015.15 1014.34 1013.47 1012.55
1025.50 1025.79 1026.08 1026.33 1026.53 1026.66 1026.73 1026.71 1026.62 1026.45 1026.21 1025.92 1025.60 1025.25 1024.90 1024.56 1024.23 1023.93 1023.64 1023.36 1023.07 1022.78 1022.46 1022.11 1021.72 1021.31 1020.88 1020.44 1020.03 1019.64 1019.28 1018.94 1018.63 1018.31 1017.96 1017.57 1017.10 1016.55 1015.92 1015.21 1014.44 1013.63 1012.78
1025.42 1025.77 1026.11 1026.42 1026.69 1026.91 1027.07 1027.16 1027.17 1027.11 1026.98 1026.78 1026.52 1026.21 1025.87 1025.51 1025.13 1024.76 1024.39 1024.02 1023.65 1023.27 1022.88 1022.47 1022.05 1021.62 1021.18 1020.75 1020.34 1019.94 1019.57 1019.20 1018.84 1018.47 1018.06 1017.60 1017.09 1016.51 1015.88 1015.20 1014.48 1013.73 1012.95
1025.34 1025.73 1026.11 1026.46 1026.78 1027.06 1027.29 1027.46 1027.57 1027.60 1027.55 1027.42 1027.22 1026.95 1026.62 1026.25 1025.84 1025.42 1024.99 1024.56 1024.13 1023.70 1023.27 1022.84 1022.41 1021.98 1021.55 1021.13 1020.71 1020.31 1019.90 1019.49 1019.06 1018.61 1018.12 1017.59 1017.02 1016.41 1015.77 1015.10 1014.43 1013.74 1013.04
1025.25 1025.68 1026.08 1026.46 1026.81 1027.12 1027.39 1027.62 1027.78 1027.87 1027.89 1027.81 1027.65 1027.41 1027.10 1026.73 1026.32 1025.89 1025.44 1024.98 1024.54 1024.10 1023.67 1023.25 1022.84 1022.43 1022.02 1021.61 1021.18 1020.75 1020.30 1019.82 1019.31 1018.76 1018.18 1017.56 1016.92 1016.26 1015.59 1014.94 1014.29 1013.65 1013.00
1025.20 1025.64 1026.06 1026.45 1026.81 1027.13 1027.43 1027.67 1027.86 1027.98 1028.03 1027.98 1027.85 1027.64 1027.34 1026.99 1026.60 1026.18 1025.75 1025.33 1024.91 1024.51 1024.13 1023.76 1023.39 1023.02 1022.63 1022.22 1021.78 1021.30 1020.78 1020.21 1019.60 1018.94 1018.25 1017.54 1016.82 1016.10 1015.40 1014.73 1014.09 1013.47 1012.85
1025.19 1025.65 1026.07 1026.47 1026.83 1027.16 1027.45 1027.69 1027.89 1028.01 1028.06 1028.03 1027.91 1027.71 1027.45 1027.13 1026.77 1026.40 1026.03 1025.68 1025.34 1025.02 1024.71 1024.41 1024.10 1023.77 1023.40 1022.99 1022.51 1021.97 1021.37 1020.70 1019.97 1019.20 1018.39 1017.58 1016.78 1015.99 1015.25 1014.55 1013.89 1013.26 1012.63
1025.22 1025.69 1026.13 1026.53 1026.90 1027.23 1027.52 1027.76 1027.95 1028.07 1028.11 1028.08 1027.96 1027.78 1027.54 1027.26 1026.96 1026.67 1026.38 1026.12 1025.88 1025.66 1025.45 1025.24 1024.99 1024.70 1024.34 1023.90 1023.38 1022.76 1022.06 1021.27 1020.43 1019.54 1018.63 1017.72 1016.83 1015.99 1015.19 1014.44 1013.74 1013.06 1012.39
1025.27 1025.76 1026.21 1026.63 1027.02 1027.37 1027.67 1027.92 1028.11 1028.22 1028.26 1028.22 1028.12 1027.95 1027.74 1027.51 1027.28 1027.06 1026.88 1026.72 1026.60 1026.49 1026.37 1026.23 1026.04 1025.77 1025.41 1024.93 1024.33 1023.63 1022.82 1021.93 1020.97 1019.98 1018.97 1017.98 1017.03 1016.12 1015.27 1014.47 1013.70 1012.96 1012.21
1025.28 1025.78 1026.27 1026.73 1027.16 1027.55 1027.89 1028.17 1028.38 1028.51 1028.55 1028.52 1028.43 1028.28 1028.10 1027.92 1027.76 1027.63 1027.54 1027.49 1027.47 1027.46 1027.42 1027.34 1027.18 1026.91 1026.52 1025.98 1025.31 1024.51 1023.60 1022.60 1021.55 1020.47 1019.40 1018.35 1017.35 1016.40 1015.50 1014.65 1013.82 1013.00 1012.16
1025.19 1025.72 1026.24 1026.76 1027.25 1027.71 1028.11 1028.44 1028.70 1028.87 1028.94 1028.94 1028.87 1028.75 1028.62 1028.49 1028.40 1028.34 1028.34 1028.37 1028.43 1028.49 1028.51 1028.45 1028.30 1028.00 1027.56 1026.96 1026.20 1025.31 1024.31 1023.23 1022.11 1020.97 1019.86 1018.79 1017.76 1016.79 1015.87 1014.97 1014.09 1013.19 1012.26
1024.96 1025.51 1026.08 1026.66 1027.23 1027.77 1028.25 1028.66 1028.99 1029.22 1029.35 1029.39 1029.37 1029.29 1029.21 1029.14 1029.10 1029.11 1029.16 1029.26 1029.37 1029.47 1029.51 1029.45 1029.27 1028.94 1028.43 1027.75 1026.92 1025.95 1024.88 1023.74 1022.58 1021.42 1020.30 1019.23 1018.22 1017.25 1016.32 1015.40 1014.47 1013.50 1012.49
1024.57 1025.14 1025.75 1026.39 1027.03 1027.66 1028.23 1028.74 1029.15 1029.45 1029.66 1029.77 1029.80 1029.79 1029.76 1029.74 1029.75 1029.81 1029.91 1030.05 1030.18 1030.28 1030.31 1030.23 1030.01 1029.61 1029.04 1028.29 1027.38 1026.35 1025.24 1024.07 1022.90 1021.76 1020.66 1019.63 1018.65 1017.71 1016.79 1015.86 1014.91 1013.90 1012.82
1024.05 1024.62 1025.25 1025.94 1026.64 1027.34 1028.00 1028.59 1029.09 1029.49 1029.78 1029.97 1030.08 1030.13 1030.17 1030.20 1030.27 1030.37 1030.50 1030.64 1030.77 1030.86 1030.86 1030.73 1030.45 1029.99 1029.35 1028.54 1027.58 1026.51 1025.38 1024.21 1023.06 1021.95 1020.90 1019.92 1018.99 1018.10 1017.21 1016.30 1015.33 1014.30 1013.18
1023.46 1024.01 1024.64 1025.35 1026.09 1026.84 1027.56 1028.23 1028.81 1029.29 1029.66 1029.93 1030.13 1030.26 1030.37 1030.47 1030.58 1030.71 1030.86 1031.00 1031.12 1031.17 1031.12 1030.94 1030.59 1030.07 1029.38 1028.52 1027.53 1026.45 1025.31 1024.18 1023.06 1022.01 1021.02 1020.10 1019.24 1018.39 1017.55 1016.66 1015.70 1014.66 1013.52
1022.87 1023.39 1024.00 1024.69 1025.43 1026.20 1026.96 1027.67 1028.31 1028.86 1029.31 1029.67 1029.94 1030.16 1030.34 1030.51 1030.67 1030.84 1031.00 1031.14 1031.23 1031.25 1031.15 1030.91 1030.50 1029.93 1029.19 1028.31 1027.30 1026.23 1025.12 1024.02 1022.96 1021.97 1021.05 1020.19 1019.39 1018.60 1017.79 1016.93 1015.99 1014.96 1013.83
1022.38 1022.83 1023.39 1024.04 1024.75 1025.51 1026.26 1026.99 1027.66 1028.26 1028.78 1029.21 1029.57 1029.86 1030.12 1030.35 1030.57 1030.77 1030.95 1031.08 1031.16 1031.13 1030.99 1030.70 1030.26 1029.65 1028.89 1028.00 1027.00 1025.95 1024.88 1023.84 1022.84 1021.90 1021.05 1020.25 1019.49 1018.74 1017.97 1017.14 1016.23 1015.22 1014.11
1022.01 1022.40 1022.89 1023.47 1024.13 1024.84 1025.56 1026.27 1026.95 1027.58 1028.14 1028.63 1029.06 1029.43 1029.76 1030.06 1030.33 1030.56 1030.76 1030.90 1030.95 1030.91 1030.74 1030.42 1029.95 1029.33 1028.57 1027.69 1026.72 1025.72 1024.70 1023.71 1022.77 1021.89 1021.09 1020.34 1019.62 1018.90 1018.16 1017.35 1016.47 1015.49 1014.41
1021.78 1022.10 1022.52 1023.02 1023.61 1024.25 1024.92 1025.59 1026.26 1026.89 1027.47 1028.01 1028.49 1028.92 1029.32 1029.67 1029.99 1030.26 1030.48 1030.62 1030.68 1030.62 1030.44 1030.11 1029.64 1029.03 1028.29 1027.45 1026.53 1025.58 1024.63 1023.70 1022.83 1022.00 1021.24 1020.52 1019.83 1019.14 1018.41 1017.63 1016.78 1015.84 1014.81
1021.64 1021.90 1022.25 1022.68 1023.19 1023.75 1024.36 1024.98 1025.61 1026.23 1026.82 1027.37 1027.89 1028.38 1028.82 1029.22 1029.58 1029.88 1030.13 1030.28 1030.35 1030.29 1030.12 1029.80 1029.35 1028.78 1028.09 1027.30 1026.46 1025.59 1024.71 1023.85 1023.04 1022.27 1021.54 1020.86 1020.19 1019.51 1018.80 1018.05 1017.22 1016.33 1015.36
Thickness
5522 5520 5519 5517 5515 5513 5511 5509 5507 5504 5501 5498 5496 5492 5489 5486 5482 5478 5475 5472 5468 5464 5460 5456 5452 5447 5442 5438 5433 5429 5424 5419 5416 5414 5410 5408 5406 5403 5401 5399 5397 5396 5394
5518 5516 5514 5512 5510 5508 5507 5505 5502 5499 5496 5494 5491 5487 5484 5481 5477 5474 5470 5466 5462 5459 5455 5450 5446 5442 5437 5432 5427 5423 5418 5414 5410 5408 5404 5401 5399 5397 5394 5392 5390 5389 5387
5512 5510 5509 5507 5505 5504 5502 5500 5497 5494 5491 5488 5485 5482 5479 5476 5473 5470 5466 5462 5458 5454 5450 5445 5441 5436 5432 5427 5422 5418 5413 5409 5405 5401 5399 5395 5393 5390 5387 5385 5383 5381 5380
5506 5504 5503 5502 5501 5499 5497 5494 5492 5489 5486 5484 5481 5478 5475 5471 5468 5465 5461 5457 5452 5448 5444 5440 5436 5432 5428 5423 5418 5413 5408 5403 5399 5395 5392 5389 5385 5382 5378 5376 5375 5373 5372
5500 5498 5498 5496 5494 5492 5490 5488 5486 5483 5481 5478 5475 5472 5469 5466 5463 5460 5455 5451 5447 5442 5438 5434 5430 5427 5423 5418 5414 5409 5404 5398 5394 5390 5386 5382 5379 5374 5371 5368 5366 5364 5363
5494 5493 5491 5488 5487 5485 5483 5481 5479 5476 5474 5471 5469 5466 5464 5462 5458 5455 5450 5445 5441 5437 5433 5429 5424 5420 5417 5413 5408 5404 5399 5394 5389 5385 5381 5377 5375 5369 5365 5361 5357 5354 5354
5487 5486 5484 5482 5480 5478 5475 5473 5471 5469 5466 5463 5461 5459 5456 5454 5451 5447 5443 5439 5435 5431 5427 5423 5419 5415 5411 5406 5401 5397 5392 5388 5385 5380 5376 5373 5368 5364 5358 5353 5349 5346 5344
5480 5478 5477 5474 5472 5470 5467 5465 5462 5460 5458 5456 5453 5450 5447 5445 5442 5439 5435 5431 5427 5423 5420 5416 5412 5408 5404 5399 5394 5389 5385 5381 5378 5374 5370 5367 5362 5356 5351 5346 5341 5337 5334
5471 5470 5469 5466 5464 5461 5459 5456 5454 5452 5450 5447 5445 5441 5439 5436 5433 5430 5426 5422 5418 5415 5411 5408 5404 5400 5397 5392 5387 5383 5378 5374 5371 5366 5362 5359 5354 5349 5343 5337 5331 5326 5325
5463 5461 5459 5457 5454 5452 5450 5447 5445 5443 5441 5437 5434 5432 5429 5427 5424 5421 5417 5414 5410 5407 5403 5399 5395 5393 5389 5385 5380 5375 5371 5368 5363 5358 5354 5351 5346 5341 5336 5330 5325 5318 5314
5452 5450 5448 5446 5444 5442 5440 5438 5436 5433 5431 5428 5425 5422 5419 5417 5415 5413 5410 5406 5403 5399 5396 5392 5388 5385 5381 5378 5373 5368 5365 5359 5354 5349 5345 5342 5337 5332 5327 5321 5316 5311 5306
5440 5439 5437 5435 5433 5431 5429 5427 5425 5423 5421 5418 5415 5412 5410 5408 5405 5403 5401 5398 5395 5391 5388 5384 5380 5377 5373 5369 5365 5361 5356 5349 5344 5340 5336 5333 5328 5324 5318 5313 5308 5303 5299
5429 5428 5426 5424 5422 5420 5419 5416 5413 5411 5409 5407 5405 5403 5401 5398 5395 5394 5391 5388 5385 5382 5379 5375 5372 5368 5364 5359 5355 5351 5345 5340 5335 5331 5328 5324 5320 5315 5310 5305 5300 5295 5290
5418 5416 5415 5413 5411 5408 5407 5405 5403 5400 5398 5396 5394 5392 5390 5388 5385 5383 5380 5378 5375 5372 5368 5365 5361 5358 5354 5350 5345 5340 5335 5331 5326 5323 5319 5315 5310 5305 5300 5296 5290 5286 5281
5405 5404 5402 5401 5399 5397 5395 5393 5391 5390 5388 5386 5384 5381 5379 5377 5376 5374 5370 5368 5365 5361 5357 5353 5349 5345 5341 5337 5332 5328 5324 5320 5316 5312 5308 5304 5300 5296 5291 5286 5280 5275 5269
5392 5391 5389 5387 5386 5384 5382 5380 5379 5377 5375 5374 5372 5370 5368 5367 5365 5362 5359 5356 5353 5350 5344 5339 5336 5332 5329 5325 5321 5317 5313 5309 5305 5301 5297 5294 5290 5286 5281 5275 5269 5264 5260
5378 5377 5375 5374 5372 5371 5369 5367 5366 5364 5362 5361 5359 5358 5357 5354 5352 5350 5347 5344 5340 5336 5330 5327 5323 5320 5316 5312 5309 5305 5301 5297 5293 5289 5285 5281 5277 5273 5269 5265 5259 5254 5249
5363 5362 5360 5359 5358 5356 5354 5353 5351 5350 5348 5347 5346 5345 5343 5341 5339 5336 5333 5329 5324 5320 5317 5313 5310 5307 5303 5300 5296 5292 5289 5285 5281 5277 5273 5270 5266 5262 5257 5253 5248 5243 5239
5349 5348 5346 5345 5343 5341 5339 5337 5336 5334 5333 5332 5330 5329 5328 5326 5324 5321 5317 5313 5310 5307 5303 5300 5297 5293 5290 5287 5283 5279 5276 5272 5269 5265 5262 5258 5254 5250 5247 5243 5238 5233 5228
5335 5333 5332 5330 5328 5325 5323 5321 5320 5319 5317 5316 5315 5314 5312 5310 5308 5305 5302 5299 5296 5293 5290 5287 5284 5280 5277 5273 5270 5267 5263 5260 5257 5254 5251 5247 5243 5239 5235 5231 5227 5222 5218
5320 5318 5316 5315 5312 5310 5308 5306 5305 5303 5302 5301 5300 5299 5300 5296 5294 5291 5288 5285 5283 5280 5277 5274 5271 5268 5265 5261 5258 5255 5252 5249 5245 5242 5239 5235 5231 5227 5224 5220 5215 5211 5207
5304 5302 5300 5299 5297 5294 5292 5291 5289 5288 5286 5285 5284 5283 5284 5281 5279 5277 5275 5273 5270 5267 5265 5262 5259 5256 5253 5250 5247 5244 5241 5238 5235 5231 5227 5223 5219 5216 5212 5208 5204 5200 5196
5287 5286 5284 5282 5281 5279 5277 5275 5274 5272 5271 5269 5268 5267 5266 5265 5264 5262 5260 5258 5256 5254 5251 5248 5246 5244 5241 5238 5235 5233 5230 5228 5225 5221 5217 5213 5209 5205 5201 5197 5193 5189 5185
5271 5270 5268 5267 5266 5265 5263 5261 5260 5258 5256 5254 5253 5252 5251 5250 5249 5248 5246 5244 5242 5239 5237 5235 5233 5231 5229 5226 5224 5222 5219 5217 5214 5211 5207 5203 5199 5195 5191 5187 5183 5178 5174
5256 5255 5254 5253 5251 5250 5249 5247 5246 5244 5243 5241 5240 5238 5237 5237 5235 5234 5232 5230 5228 5226 5224 5222 5220 5219 5217 5216 5214 5211 5209 5206 5204 5201 5197 5193 5189 5185 5181 5176 5172 5167 5163
5242 5240 5239 5239 5237 5236 5234 5233 5232 5231 5229 5228 5227 5225 5224 5223 5222 5220 5218 5216 5215 5213 5211 5210 5208 5207 5206 5204 5202 5201 5199 5196 5194 5191 5188 5184 5179 5175 5171 5166 5162 5157 5152